#timestamp,LO_Frequency,Hit 
1499749215.1,286047039.6,N
1499749216.0,286047039.6,N
1499749235.8,286047037.1,N
1499749255.6,286047035.3,N
1499749275.5,286047038.0,N
1499749295.3,286047035.3,N
1499749315.1,286047036.1,N
1499749335.9,286047035.9,N
1499749355.7,286047033.5,N
1499749375.5,286047037.6,N
1499749395.3,286047035.6,N
1499749415.2,286047033.3,N
1499749435.0,286047034.1,N
1499749435.9,286047034.1,N
1499749455.7,286047034.8,N
1499749475.6,286047033.9,N
1499749495.4,286047034.3,N
1499749515.2,286047037.9,N
1499749535.1,286047037.8,N
1499749536.0,286047037.8,N
1499749555.8,286047034.9,N
1499749575.6,286047037.8,N
1499749595.5,286047038.4,N
1499749615.3,286047040.8,N
1499749635.1,286047038.6,N
1499749655.9,286047040.0,N
1499749675.7,286047040.3,N
1499749695.5,286047038.9,N
1499749715.4,286047038.7,N
1499749735.2,286047040.3,N
1499749755.0,286047039.9,N
1499749755.9,286047039.9,N
1499749775.8,286047040.1,N
1499749795.6,286047040.6,N
1499749815.4,286047042.1,N
1499749835.2,286047043.9,N
1499749855.1,286047044.0,N
1499749856.0,286047044.0,N
1499749875.8,286047044.0,N
1499749895.6,286047044.0,N
1499749915.5,286047041.5,N
1499749935.3,286047041.7,N
1499749955.1,286047041.7,N
1499749975.9,286047041.3,N
1499749995.7,286047044.0,N
1499750015.5,286047044.0,N
1499750035.4,286047041.9,N
1499750055.2,286047041.1,N
1499750075.0,286047039.9,N
1499750075.9,286047039.9,N
1499750095.8,286047038.7,N
1499750115.6,286047039.3,N
1499750135.4,286047041.2,N
1499750155.3,286047038.9,N
1499750175.1,286047036.8,N
1499750176.0,286047036.8,N
1499750195.8,286047038.9,N
1499750215.7,286047039.4,N
1499750235.5,286047039.5,N
1499750255.3,286047036.9,N
1499750275.1,286047037.1,N
1499750295.9,286047034.9,N
1499750315.7,286047037.3,N
1499750335.5,286047036.8,N
1499750355.4,286047036.9,N
1499750375.2,286047036.7,N
1499750395.0,286047037.2,N
1499750395.9,286047037.2,N
1499750415.8,286047036.6,N
1499750435.6,286047037.1,N
1499750455.4,286047037.8,N
1499750475.3,286047037.8,N
1499750495.1,286047037.0,N
1499750496.0,286047037.0,N
1499750515.8,286047038.9,N
1499750535.7,286047038.2,N
1499750555.5,286047038.4,N
1499750575.3,286047042.8,N
1499750595.2,286047040.2,N
1499750615.9,286047038.3,N
1499750635.7,286047038.8,N
1499750655.5,286047039.3,N
1499750675.4,286047038.6,N
1499750695.2,286047039.8,N
1499750715.0,286047040.6,N
1499750715.9,286047040.6,N
1499750735.8,286047038.2,N
1499750755.6,286047038.7,N
1499750775.4,286047036.6,N
1499750795.3,286047038.4,N
1499750815.1,286047038.5,N
1499750835.8,286047042.7,N
1499750855.7,286047040.1,N
1499750875.5,286047040.0,N
1499750895.3,286047039.7,N
1499750915.2,286047040.6,N
1499750935.9,286047040.9,N
1499750955.7,286047039.8,N
1499750975.6,286047041.5,N
1499750995.4,286047044.0,N
1499751015.2,286047044.1,N
1499751035.0,286047043.0,N
1499751036.0,286047043.0,N
1499751055.8,286047043.0,N
1499751075.6,286047044.7,N
1499751095.5,286047047.3,Y
1499751115.3,286047005.2,N
1499751135.1,286047002.9,N
1499751155.8,286047004.6,N
1499751175.7,286047008.7,N
1499751195.5,286047010.5,N
1499751215.3,286047006.9,N
1499751235.2,286047006.6,N
1499751255.9,286047010.8,N
1499751275.7,286047011.8,N
1499751295.6,286047013.2,N
1499751315.4,286047015.5,N
1499751335.2,286047016.0,N
1499751355.1,286047014.3,N
1499751356.0,286047014.3,N
1499751375.8,286047014.1,N
1499751395.6,286047015.0,N
1499751415.5,286047015.9,N
1499751435.3,286047016.7,N
1499751455.1,286047017.2,N
1499751475.8,286047014.4,N
1499751495.7,286047015.3,N
1499751515.5,286047012.9,N
1499751535.3,286047015.4,N
1499751555.2,286047013.1,N
1499751575.0,286047015.1,N
1499751575.9,286047015.1,N
1499751595.7,286047014.9,N
1499751615.6,286047016.7,N
1499751635.4,286047014.9,N
1499751655.2,286047011.6,N
1499751675.1,286047009.6,N
1499751676.0,286047009.6,N
1499751695.8,286047009.4,N
1499751715.6,286047007.2,N
1499751735.5,286047005.8,N
1499751755.3,286047002.6,N
1499751775.1,286046998.2,N
1499751795.9,286047000.4,N
1499751815.7,286046998.6,N
1499751835.5,286046997.2,N
1499751855.3,286046997.9,N
1499751875.2,286047002.7,N
1499751895.0,286047001.6,N
1499751895.9,286047001.6,N
1499751915.7,286047003.7,N
1499751935.6,286047008.3,N
1499751955.4,286047012.9,N
1499751975.2,286047017.2,N
1499751995.1,286047013.0,N
1499751996.0,286047013.0,N
1499752015.8,286047013.2,N
1499752035.6,286047008.7,N
1499752055.5,286047003.4,N
1499752075.3,286047008.7,N
1499752095.1,286047015.2,N
1499752115.9,286047017.8,N
1499752135.7,286047014.1,N
1499752155.5,286047013.5,N
1499752175.4,286047012.4,N
1499752195.2,286047011.3,N
1499752215.0,286047009.7,N
1499752215.9,286047009.7,N
1499752235.8,286047012.3,N
1499752255.6,286047017.2,N
1499752275.4,286047017.9,N
1499752295.2,286047023.6,N
1499752315.1,286047025.2,N
1499752316.0,286047025.2,N
1499752335.8,286047022.1,N
1499752355.6,286047025.0,N
1499752375.5,286047024.4,N
1499752395.3,286047026.2,N
1499752415.1,286047023.5,N
1499752435.9,286047016.6,N
1499752455.7,286047012.7,N
1499752475.5,286047017.2,N
1499752495.4,286047018.1,N
1499752515.2,286047018.3,N
1499752535.0,286047019.2,N
1499752535.9,286047019.2,N
1499752555.8,286047020.8,N
1499752575.6,286047019.4,N
1499752595.4,286047020.8,N
1499752615.3,286047022.4,N
1499752635.1,286047024.6,N
1499752636.0,286047024.6,N
1499752655.8,286047020.7,N
1499752675.7,286047015.8,N
1499752695.5,286047019.3,N
1499752715.3,286047022.2,N
1499752735.2,286047018.3,N
1499752755.9,286047016.9,N
1499752775.7,286047016.4,N
1499752795.5,286047017.7,N
